{"data":{"norad_id":53864,"intl_designator":"2022-114AY","name":"STARLINK-4779","alt_names":[],"object_type":"PAYLOAD","status":"ACTIVE","operator":null,"country":"US","launch_date":"2022-09-19","launch_site_code":"AFETR","launch_vehicle":null,"mission":null,"orbit_class":"UNKNOWN","rcs_meters":null,"size_class":null,"mass_kg":null,"dimensions":null,"purposes":["comms"],"wikipedia_slug":null,"has_3d_model":false,"image_url":null,"decayed_at":null,"tle_current":{"epoch":"2026-05-25T04:02:03.533280Z","epoch_age_seconds":60487,"freshness":"FRESH","line1":"1 53864U 22114AY  26145.16809645 -.00000468  00000+0 -11295-4 0  9994","line2":"2 53864  53.2144 300.3610 0001296  85.4571 274.6569 15.08837925204663","mean_motion":15.08837925,"eccentricity":0.0001296,"inclination_deg":53.2144,"raan_deg":300.361,"arg_perigee_deg":85.4571,"mean_anomaly_deg":274.6569,"bstar":-1.1295e-5,"rev_number":20466,"period_min":95.437685926406,"perigee_km":538.85317329586,"apogee_km":540.64628953665,"semimajor_km":6917.8867314163,"source":"CELESTRAK","updated_at":"2026-05-25T13:38:17.579470Z"}}}